Weather History for KCVB - March, 2013

Change the Weather History Date:

Friday, March 8, 2013

  Actual Average (KSKF) Record (KSKF)
Temperature  
Mean Temperature 66 °F -  
Max Temperature 70 °F 69 °F 93 °F (2006)
Min Temperature 61 °F 50 °F 30 °F (2008)
Growing Degree Days 16 (Base 50)    
Moisture  
Dew Point 60 °F    
Average Humidity 81    
Maximum Humidity 100    
Minimum Humidity 69    
Precipitation  
Precipitation 0.00 in - - ()
Sea Level Pressure  
Sea Level Pressure 30.07 in    
Wind  
Wind Speed 9 mph (SE)    
Max Wind Speed 21 mph    
Max Gust Speed 25 mph    
Visibility 9 miles    
Events Rain    
Averages and records for this station are not official NWS values.
T = Trace of Precipitation, MM = Missing Value Source: NWS Daily Summary

Daily Weather History Graph

Daily Weather History Graph

Search for Another Location

Airport or City:

Trip Planner

Search our weather history database for the weather conditions in past years. The results will help you decide how hot, cold, wet, or windy it might be!

Date:

Astronomy

Mar. 08, 2013 Rise Set
Actual Time 6:52 AM CST 6:39 PM CST
Civil Twilight 6:29 AM CST 7:03 PM CST
Nautical Twilight 6:01 AM CST 7:30 PM CST
Astronomical Twilight 5:34 AM CST 7:58 PM CST
Moon 4:25 AM CST (3/8) 3:47 PM CST (3/8)
Length of Visible Light 12h 34m
Length of Day
11h 46m
Waning Crescent, 11% of the Moon is Illuminated
Mar 8
Waning Crescent
Mar 11
New
Mar 19
First Quarter
Mar 27
Full
Apr 2
Last Quarter

Hourly Weather History & Observations

Time (CST) Temp. Dew Point Humidity Pressure Visibility Wind Dir Wind Speed Gust Speed Precip Events Conditions
12:15 AM 63.1 °F 55.2 °F 75% 30.13 in 10.0 mi SE 9.2 mph - N/A   Overcast
12:35 AM 63.0 °F 55.0 °F 75% 30.13 in 10.0 mi SE 10.4 mph - N/A   Overcast
12:55 AM 62.6 °F 54.9 °F 76% 30.12 in 10.0 mi SE 10.4 mph 16.1 mph N/A   Overcast
1:15 AM 62.6 °F 54.9 °F 76% 30.13 in 10.0 mi SE 10.4 mph - N/A   Overcast
1:35 AM 62.2 °F 54.7 °F 76% 30.12 in 10.0 mi SE 6.9 mph - N/A   Overcast
1:55 AM 62.1 °F 54.7 °F 77% 30.12 in 10.0 mi SE 9.2 mph - N/A   Overcast
2:15 AM 61.9 °F 54.9 °F 78% 30.10 in 10.0 mi SE 9.2 mph - N/A   Overcast
2:35 AM 61.9 °F 55.0 °F 78% 30.10 in 10.0 mi SE 6.9 mph - N/A   Overcast
2:55 AM 61.9 °F 55.4 °F 79% 30.10 in 10.0 mi SE 8.1 mph - N/A   Overcast
3:15 AM 61.9 °F 55.6 °F 80% 30.09 in 10.0 mi SSE 6.9 mph - N/A   Overcast
3:35 AM 61.9 °F 55.8 °F 80% 30.08 in 10.0 mi SE 6.9 mph - N/A   Overcast
3:55 AM 62.1 °F 56.5 °F 82% 30.08 in 10.0 mi SE 6.9 mph - N/A   Overcast
4:15 AM 61.9 °F 57.2 °F 85% 30.08 in 10.0 mi SE 5.8 mph - N/A   Overcast
4:35 AM 61.9 °F 57.2 °F 85% 30.08 in 10.0 mi SE 5.8 mph - N/A   Overcast
4:55 AM 62.1 °F 58.1 °F 87% 30.08 in 10.0 mi SSE 6.9 mph - N/A   Overcast
5:15 AM 62.6 °F 59.5 °F 90% 30.08 in 10.0 mi SE 6.9 mph - N/A   Overcast
5:35 AM 62.6 °F 60.3 °F 92% 30.08 in 10.0 mi SSE 6.9 mph - N/A   Overcast
5:55 AM 62.2 °F 60.8 °F 95% 30.09 in 7.0 mi SE 8.1 mph - N/A   Overcast
6:15 AM 61.7 °F 61.0 °F 97% 30.08 in 4.0 mi SE 3.5 mph - N/A Rain Rain
6:35 AM 61.5 °F 61.2 °F 99% 30.10 in 7.0 mi SE 3.5 mph - N/A   Overcast
6:55 AM 61.3 °F 61.3 °F 100% 30.10 in 5.0 mi ESE 4.6 mph - N/A   Overcast
7:15 AM 61.7 °F 61.7 °F 100% 30.09 in 5.0 mi ESE 3.5 mph - N/A   Overcast
7:35 AM 61.7 °F 61.7 °F 100% 30.10 in 5.0 mi Calm Calm - N/A   Overcast
7:55 AM 61.9 °F 61.9 °F 100% 30.11 in 5.0 mi ESE 3.5 mph - N/A   Overcast
8:15 AM 62.2 °F 62.2 °F 100% 30.11 in 5.0 mi ESE 5.8 mph - N/A   Overcast
8:35 AM 62.8 °F 62.6 °F 99% 30.12 in 7.0 mi SE 4.6 mph - N/A   Overcast
8:55 AM 63.1 °F 63.0 °F 99% 30.13 in 7.0 mi SE 4.6 mph - N/A   Overcast
9:15 AM 63.7 °F 63.5 °F 99% 30.13 in 7.0 mi ESE 5.8 mph - N/A   Overcast
9:35 AM 64.4 °F 63.9 °F 98% 30.13 in 7.0 mi East 5.8 mph - N/A   Overcast
9:55 AM 64.4 °F 63.5 °F 97% 30.13 in 7.0 mi ESE 6.9 mph - N/A   Overcast
10:15 AM 64.8 °F 63.7 °F 96% 30.12 in 7.0 mi ESE 6.9 mph - N/A   Overcast
10:35 AM 65.5 °F 63.9 °F 94% 30.12 in 10.0 mi ESE 5.8 mph - N/A   Overcast
10:55 AM 66.0 °F 63.7 °F 92% 30.12 in 10.0 mi ESE 5.8 mph - N/A   Overcast
11:15 AM 66.6 °F 63.5 °F 90% 30.12 in 10.0 mi SE 8.1 mph - N/A   Overcast
11:35 AM 67.1 °F 63.1 °F 87% 30.11 in 10.0 mi ESE 8.1 mph - N/A   Overcast
11:55 AM 68.0 °F 62.1 °F 81% 30.09 in 10.0 mi SE 11.5 mph - N/A   Overcast
12:15 PM 68.9 °F 60.4 °F 74% 30.08 in 10.0 mi SE 12.7 mph - N/A   Overcast
12:35 PM 70.0 °F 60.1 °F 71% 30.07 in 10.0 mi SE 11.5 mph - N/A   Overcast
12:55 PM 70.2 °F 60.1 °F 70% 30.07 in 10.0 mi ESE 9.2 mph - N/A   Overcast
1:15 PM 68.9 °F 60.6 °F 75% 30.06 in 10.0 mi SE 9.2 mph - N/A Rain Rain
1:35 PM 70.0 °F 60.4 °F 72% 30.05 in 10.0 mi SE 9.2 mph - N/A   Overcast
1:55 PM 69.8 °F 60.6 °F 73% 30.05 in 10.0 mi SE 10.4 mph - N/A   Overcast
2:15 PM 70.7 °F 60.8 °F 71% 30.03 in 10.0 mi SE 10.4 mph - N/A   Mostly Cloudy
2:35 PM 70.5 °F 60.4 °F 70% 30.03 in 10.0 mi SE 13.8 mph - N/A   Mostly Cloudy
2:55 PM 70.2 °F 60.4 °F 71% 30.04 in 10.0 mi SE 10.4 mph 17.3 mph N/A   Overcast
3:15 PM 69.3 °F 61.0 °F 75% 30.03 in 10.0 mi ESE 12.7 mph 17.3 mph N/A   Overcast
3:35 PM 69.8 °F 61.0 °F 73% 30.03 in 10.0 mi SE 12.7 mph 19.6 mph N/A   Overcast
3:55 PM 69.8 °F 61.3 °F 74% 30.02 in 10.0 mi ESE 11.5 mph 19.6 mph N/A   Mostly Cloudy
4:15 PM 70.0 °F 61.2 °F 73% 30.02 in 10.0 mi ESE 15.0 mph 23.0 mph N/A   Mostly Cloudy
4:35 PM 70.7 °F 61.0 °F 71% 30.00 in 10.0 mi ESE 16.1 mph 20.7 mph N/A   Overcast
4:55 PM 70.0 °F 60.8 °F 73% 30.00 in 10.0 mi SE 16.1 mph 23.0 mph N/A   Mostly Cloudy
5:15 PM 69.8 °F 61.0 °F 73% 30.01 in 10.0 mi ESE 10.4 mph - N/A   Overcast
5:35 PM 69.6 °F 60.3 °F 72% 30.01 in 10.0 mi SE 15.0 mph 20.7 mph N/A   Overcast
5:55 PM 69.6 °F 59.9 °F 71% 30.01 in 10.0 mi SE 13.8 mph 20.7 mph N/A   Overcast
6:15 PM 69.4 °F 59.5 °F 71% 30.02 in 10.0 mi ESE 11.5 mph 16.1 mph N/A   Overcast
6:35 PM 69.3 °F 59.0 °F 70% 30.02 in 10.0 mi SE 12.7 mph 19.6 mph N/A   Overcast
6:55 PM 69.1 °F 58.6 °F 69% 30.02 in 10.0 mi SSE 20.7 mph 25.3 mph N/A   Overcast
7:15 PM 68.9 °F 58.5 °F 69% 30.02 in 10.0 mi SE 16.1 mph 25.3 mph N/A   Overcast
7:35 PM 68.2 °F 59.0 °F 72% 30.02 in 10.0 mi SE 13.8 mph - N/A   Overcast
7:55 PM 68.0 °F 59.0 °F 73% 30.03 in 10.0 mi SE 17.3 mph 21.9 mph N/A   Overcast
8:15 PM 67.5 °F 59.0 °F 74% 30.03 in 10.0 mi SE 16.1 mph 20.7 mph N/A   Overcast
8:35 PM 67.1 °F 59.0 °F 75% 30.04 in 10.0 mi SE 11.5 mph 19.6 mph N/A   Overcast
8:55 PM 66.7 °F 59.0 °F 76% 30.05 in 10.0 mi SE 12.7 mph 18.4 mph N/A   Overcast
9:15 PM 66.6 °F 59.0 °F 77% 30.05 in 10.0 mi SE 10.4 mph - N/A   Overcast
9:35 PM 66.2 °F 58.6 °F 77% 30.05 in 10.0 mi SE 10.4 mph 17.3 mph N/A   Overcast
9:55 PM 66.0 °F 58.8 °F 78% 30.05 in 10.0 mi SE 9.2 mph - N/A   Overcast
10:15 PM 65.7 °F 58.5 °F 78% 30.05 in 10.0 mi SE 9.2 mph - N/A   Overcast
10:35 PM 65.5 °F 59.0 °F 80% 30.05 in 10.0 mi SE 9.2 mph - N/A   Overcast
10:55 PM 65.3 °F 59.0 °F 80% 30.04 in 10.0 mi ESE 8.1 mph - N/A   Overcast
11:15 PM 65.3 °F 59.0 °F 80% 30.04 in 10.0 mi ESE 8.1 mph - N/A   Overcast
11:35 PM 64.9 °F 59.0 °F 81% 30.03 in 10.0 mi ESE 9.2 mph - N/A   Overcast
11:55 PM 64.9 °F 59.0 °F 81% 30.02 in 10.0 mi ESE 6.9 mph - N/A   Overcast